Simultaneous Nadir Overpasses (SNOs) Predictions

Prediction of SNOs near US between AQUA and NPP Satellite Orbit:

Table of predicted SNOs near US for the next 10.0 days since TLE Epoch: 9/25/2021
Index Date (AQUA) Time (AQUA) AQUA Lat,Lon Date (NPP) Time (NPP) NPP Lat,Lon Distance(km) Time Diff (sec)
1 09/27/2021 07:18:46 49.94, -75.98 09/27/2021 07:21:00 50.37, -78.28 170.90 134
2 09/27/2021 08:57:40 49.88,-100.72 09/27/2021 09:02:28 50.48,-103.60 215.69 288
3 09/29/2021 18:16:57 50.00, -80.21 09/29/2021 18:11:18 49.68, -81.88 124.93 339
4 09/29/2021 19:55:50 49.99,-104.92 09/29/2021 19:52:46 49.57,-107.20 170.17 184
5 09/29/2021 21:30:59 36.63,-124.99 09/29/2021 21:30:24 36.14,-127.68 247.13 35
6 10/02/2021 09:23:15 24.68,-113.14 10/02/2021 09:16:12 24.81,-113.66 54.11 423
